Погода Абрамовский Маяк

Поиск расширенной информации на нашем сайте:

Полезная информация:

Новости сайта



02.01.2020
Опубликован Долгосрочный прогноз погоды по городам России и ближнего зарубежья на январь 2020 года.
Карты: Прогноз на январь и февраль 2020 года, Сравнение прогнозируемой аномалии приземной температуры воздуха на январь 2020 года по разным моделям.




Погода Абрамовский Маяк - сегодня

Время (UTC), дата Ветер
(°,м/с) 
Видим.   Явления Облачность Т
(°С)
Тd
(°С)
f(%) Тe
(°С)
Pmin
(гПа)
dP
(гПа)
Po
(мм)
O2
(г/м3)
Тmin Tmax R s Состояние
почвы
03 29.11.20 190 (Ю) 20000 м    10/10 300 м 
[Sc]
-8.5 -10.4 86 -13  1035.8  -0.9  775  323  -8.5      равномерный
сухой снег
100% 
06 29.11.20 180 (Ю) 7-11{11}  20000 м    6/4 600 м средняя 
[Sc|Ac trans]
-10 -12 85 -16  1034.7  -1.1  774  325  -10         
09 29.11.20 180 (Ю) 6-10{11}  20000 м    8/1 600 м верхняя 
[Sc|Cs]
-8.6 -10.3 87 -14  1034  -0.6  773  323           
12 29.11.20 210 (ЮЗ) 4{12}  20000 м    9/3 600 м средняя, верхняя 
[Sc|Ac trans|Ci fib]
-8.6 -10.4 87 -12  1035.3  1.2  774  323           
15 29.11.20 170 (Ю) 8-12{13}  20000 м    10/10 600 м 
[Sc]
-7.5 -8.6 92 -13  1033.4  -1.8  773  321    -7.2       
18 29.11.20 190 (Ю) 7-12{13}  20000 м    10/10 600 м 
[Sc]
-7.4 -8.7 90 -13  1033.2  -0.2  773  321           
21 29.11.20 190 (Ю) 7-12{13}  20000 м    10/10 600 м 
[Sc]
-7.6 -9 90 -13  1032.9  -0.3  773  321           
00 30.11.20 180 (Ю) 7-11{12}  20000 м    10/10 600 м 
[Sc]
-5.3 -6.3 93 -10  1031.3  -1.6  771  318           
03 30.11.20 180 (Ю) 6{12}  20000 м    10/10 600 м 
[Sc]
-4.6 -5.7 92 -9  1031  -0.3  771  317  -7.8      равномерный
сухой снег
100% 
06 30.11.20 180 (Ю) 6-10{11}  20000 м    10/10 600 м 
[Sc]
-4.3 -5.4 92 -9  1030.6  -0.4  771  316           
09 30.11.20 170 (Ю) 7{11}  20000 м    10/10 300 м 
[Sc]
-3.8 -5 91 -8  1029.8  -0.8  770  315           
12 30.11.20 170 (Ю) 7-10{11}  20000 м    10/10 300 м 
[St]
-3.3 -5 88 -8  1028.3  -1.5  769  314           
15 30.11.20 170 (Ю) 8-11{11}  20000 м    10/10 600 м 
[Sc]
-2.8 -5.1 84 -8  1026.9  -1.4  768  313    -2.8       
18 30.11.20 160 (Ю) 8-11{12}  20000 м    10/10 600 м 
[Sc]
-2.9 -4.6 88 -8  1025.8  -1.1  767  313           
21 30.11.20 160 (Ю) 7-11{13}  20000 м    10/10 600 м 
[Sc]
-2.1 -4.3 85 -6  1023.9  -1.8  766  312           
00 01.12.20 160 (Ю) 8-12{12}  20000 м    10/10 600 м 
[Sc]
-1.4 -3.7 84 -6  1021.8  -2.2  764  310           
03 01.12.20 160 (Ю) 8-11{13}  20000 м    10/10 600 м 
[Sc]
-0.9 -2.5 89 -5  1020.1  -1.7  763  309  -3      равномерный
сухой снег
100% 
06 01.12.20 170 (Ю) 8-12{12}  20000 м    10/10 600 м 
[Sc]
-0.4 -2.2 88 -5  1018.8  -1.2  762  308           
09 01.12.20 180 (Ю) 6-11{12}  20000 м  {ливн. осадки}  10/10 300 м 
[Sc]
+0.3 -1.4 88 -3  1018.4  -0.5  762  307           
12 01.12.20 180 (Ю) 6-11{16}  20000 м  {ливн. осадки}  9/9 600 м 
[Sc]
-0.1 -2.5 84 -4  1017.9  -0.5  761  307           
15 01.12.20 190 (Ю) 6-10{12}  20000 м    5/5 600 м 
[Sc]
-1.3 -3.9 82 -5  1017.6  -0.2  761  309    +0.6  0.0     
18 01.12.20 180 (Ю) 6{11}  20000 м    6/5 600 м средняя 
[Sc|Ac trans]
-1.5 -4.2 82 -5  1018  0.3  761  309           
21 01.12.20 190 (Ю) 6-11{13}  20000 м    9/9 600 м 
[Sc]
-0.9 -4.1 79 -5  1018.6  0.7  762  309           
00 02.12.20 180 (Ю) 6-10{11}  20000 м    10/10 600 м 
[Sc]
-0.9 -3.4 83 -5  1019.2  0.5  762  309           
03 02.12.20 170 (Ю) 5{10}  20000 м    9/9 600 м 
[Sc]
-1.9 -4 86 -5  1019.5  0.3  763  310  -2      равномерный
мокрый или
старый снег
100% 
Время (UTC), дата Ветер
(°,м/с) 
Видим.   Явления Облачность Т
(°С)
Тd
(°С)
f(%) Тe
(°С)
Pmin
(гПа)
dP
(гПа)
Po
(мм)
O2
(г/м3)
Тmin Tmax R s Состояние
почвы

Для получения пояснительной информации подведите курсор к названию столбца.

ПОГОДА Абрамовский Маяк - архив

Всё, что Вы хотите узнать о погоде Абрамовский Маяк - удобно и подробно!

Выберите нужную дату (начиная с 1 января 2019* года) и нажмите кнопку "Найти".
Будут отображены архивные сводки погоды по пункту Абрамовский Маяк, начиная с указанной даты.


Отображать данные в формате CSV (для использования в таблицах Excel)


Внимание! Наш архив погоды предназначен исключительно для личного некоммерческого использования в познавательных целях. Если Вам необходимы официальные справки о состоянии погоды (для производственных, юридических, коммерческих и т.п. целей), обращайтесь в органы Росгидромета.

*Примечание: данная дата относится к архиву по метеостанциям СССР (Россия, СНГ, Балтия).
Архив по метеостанциям Зарубежной Европы и Азии (кроме Китая) хранится 10 дней, по другим регионам земного шара (Китай, Африка, Америка, Австралия, Океания) - 1 день.

Абрамовский Маяк - район местоположения метеостанции


Название, широта, долгота, высота метеостанции:
Абрамовский Маяк 66.4°ш. 43.2°д. 21 м над ур. моря [Российская Федерация]

Дополнительная информация

В oтличие oт бoльшинства пoгoдных сайтoв мы публикуем пoдрoбную метеoинфoрмацию в детальнoм прoфессиoнальнoм фoрмате.

Характеристики температуры и влажнoсти вoздуха измеряются на высoте 2 м в тени вдали oт зданий и деревьев.
Скoрoсть ветра измеряется на высoте 10 м (на урoвне рoста челoвека скoрoсть ветра ниже в 1.5-2 раза). Если метеoстанция нахoдится в гoрoде или в лесу, тo скoрoсть ветра занижена на 2-4 м/с пo сравнению с oткрытым местoм. Скoрoсть ветра над акватoриями крупных рек и oзёр, а также на вершинах хoлмoв на 2-5 м/с выше, чем в oбычных услoвиях.
Атмoсфернoе давление в разных тoчках местнoсти мoжет значительнo oтличаться oт давления на метеoстанции, в зависимoсти oт услoвий рельефа (при пoдъёме на 10 м давление пoнижается примернo на 1 мм рт.ст.).